Location: Los Gatos B&B
(42.6926°N, 77.0646°W)
Time: 15:35:20
(UTC-05:00)

Daily predictions for brighter satellites

Satellite Brightness Start Highest point End
(mag) Time Altitude Azimuth Time Altitude Azimuth Time Altitude Azimuth
Cosmos 1833 4.2 18:12:44 10° SSW 18:18:25 77° ESE 18:24:05 10° NNE
SL-16 R/B 3.9 18:15:52 10° NW 18:21:07 40° WSW 18:26:20 10° S
Resurs 01 Rocket 2.9 18:20:20 10° ESE 18:23:38 21° ENE 18:26:57 10° NNE
Meteor 1-11 Rocket 4.0 18:18:08 10° SSE 18:23:42 50° E 18:29:26 10° NNE
Cosmos 676 Rocket 4.2 18:18:33 10° SSW 18:23:44 77° WNW 18:29:00 10° NNE
NOAA 12 4.2 18:18:50 10° SSE 18:24:02 58° ENE 18:29:17 10° N
Cosmos 2333 Rocket 3.4 18:20:51 10° N 18:25:20 23° NE 18:29:48 10° ESE
Cosmos 1140 Rocket 3.4 18:21:34 10° S 18:26:39 70° ESE 18:31:49 10° NNE
Cosmos 614 Rocket 4.1 18:22:44 10° S 18:27:39 53° ESE 18:32:34 10° NNE
NOSS 8 (E) 4.5 18:27:04 10° SSW 18:30:29 74° ESE 18:34:15 10° NE
FENGYUN 3A 4.2 18:26:20 10° SE 18:31:15 37° ENE 18:36:12 10° N
ATLAS CENTAUR R/B 3.5 18:32:55 10° SSE 18:34:30 12° SE 18:35:44 10° ESE
Cosmos 2322 Rocket 4.5 18:30:25 10° NW 18:35:12 29° WSW 18:39:58 10° SSW
Meteor 1-28 Rocket 3.4 18:31:34 10° N 18:35:23 78° WNW 18:39:12 10° SSW
Cosmos 1570 Rocket 4.1 18:30:32 10° NNW 18:35:42 57° ENE 18:40:51 10° SE
GPS 2-04 Rocket1 4.2 18:32:16 10° SW 18:35:53 28° S 18:39:34 10° ESE
Cosmos 2181 Rocket 4.0 18:29:37 10° N 18:35:54 73° E 18:42:15 10° SSE
USA 229 DEB 4.0 18:31:57 10° NNW 18:38:56 54° NE 18:45:59 10° SE
USA 229 4.0 18:32:03 10° NNW 18:39:01 53° NE 18:46:05 10° ESE
Cosmos 1633 2.6 18:35:25 10° S 18:39:06 89° W 18:42:48 10° N
Genesis I 3.2 18:35:42 10° NNW 18:39:39 87° NE 18:43:35 10° SE
Cosmos 1238 Rocket 2.0 18:37:10 10° N 18:40:08 84° E 18:43:10 10° S
Okean 1 Rocket 3.1 18:37:37 10° S 18:42:01 60° E 18:46:27 10° NNE
Cosmos 1709 Rocket 4.1 18:38:00 10° S 18:44:13 84° W 18:50:24 10° N
Cosmos 2074 Rocket 4.3 18:39:53 10° SSE 18:45:45 44° E 18:51:40 10° NNE
NOSS 8 (H) 4.3 18:42:26 10° SSW 18:45:48 76° SE 18:49:25 10° NE
METEOR-M 4.1 18:40:37 10° SSE 18:45:57 88° ENE 18:51:20 10° NNW
Cosmos 1025 Rocket 3.4 18:43:40 10° N 18:47:50 41° ENE 18:51:59 10° SSE
OTV 4 2.7 18:48:45 10° S 18:50:13 13° SSE 18:51:22 11° SE
Spot 2 Rocket 3.9 18:46:21 10° SE 18:51:03 41° ENE 18:55:48 10° N
Cosmos 2184 Rocket 4.2 18:46:07 10° SSE 18:52:06 48° E 18:58:04 10° NNE
USA 215 4.4 18:47:56 10° NE 18:53:46 36° NNW 18:59:34 10° W
FengYun 1-2 T 4.2 18:50:48 10° SSE 18:56:09 59° ENE 19:01:35 10° N
Cosmos 2322 4.4 18:51:27 10° NNW 18:57:05 59° WSW 19:02:38 10° S
BREEZE-M DEB (TANK) 2.7 19:00:28 10° SW 19:04:22 44° SSE 19:05:20 29° E
Cosmos 1850 Rocket 4.1 19:01:18 10° SSW 19:06:36 83° WNW 19:11:59 10° NNE
Cosmos 2208 Rocket 4.1 19:01:16 10° NNW 19:06:45 85° WSW 19:12:08 10° SSE
Envisat 4.2 19:06:50 20° ENE 19:07:47 21° ENE 19:11:29 10° NNE
NOSS 3-1 (C) 4.4 19:02:19 10° NNW 19:09:21 44° NE 19:14:48 19° ESE
SJ-6B 3.2 19:05:29 10° S 19:09:26 65° WSW 19:13:19 10° NNW
Cosmos 1544 Rocket 4.3 19:05:50 10° SSE 19:09:35 29° E 19:13:20 10° NNE
NOSS 0 Rocket 4.2 19:04:22 10° NNW 19:10:20 48° ENE 19:15:08 16° SE
Cosmos 405 Rocket 3.3 19:06:51 10° N 19:10:41 38° ENE 19:13:11 18° SE
Cosmos 2237 Rocket 2.8 19:06:30 10° N 19:11:44 35° ENE 19:14:36 22° ESE
ALOS 2.2 19:08:23 10° SSE 19:13:03 88° ENE 19:17:45 10° NNW
Cosmos 2333 4.2 19:08:21 10° NNW 19:14:07 89° ENE 19:19:53 10° SSE
HJ-1C 3.3 19:10:53 10° SSE 19:14:15 86° WSW 19:17:39 10° NNW
Cosmos 2297 Rocket 3.3 19:10:27 10° SSE 19:14:23 22° ESE 19:14:23 22° ESE
COSMOS 2428 2.8 19:10:15 10° NNW 19:15:57 78° WSW 19:21:37 10° SSE
H-2A R/B 2.6 19:12:28 10° SSE 19:16:07 61° ENE 19:19:52 10° N
CZ-2D R/B 3.5 19:14:14 17° SE 19:16:51 45° ENE 19:20:32 10° N
Okean 1-7 Rocket 3.9 19:14:07 10° NNW 19:18:37 69° W 19:23:03 10° S
Meteor 2-4 Rocket 4.0 19:15:50 10° NNW 19:21:19 67° W 19:26:38 10° S
Cosmos 2154 Rocket 4.3 19:15:41 10° SSE 19:21:35 43° E 19:27:31 10° NNE
Cosmos 2285 Rocket 4.0 19:16:18 10° NNW 19:22:47 82° ENE 19:29:12 10° SSE
Gbstr 26 Del rocket 3.6 19:19:57 10° W 19:23:34 41° NNW 19:25:40 21° NE
Cosmos 2360 Rocket 4.1 19:19:07 10° NW 19:24:00 31° WSW 19:28:53 10° SSW
Cosmos 2219 Rocket 2.1 19:18:33 10° NNW 19:24:09 70° ENE 19:28:57 14° SSE
Meteor 1-23 Rocket 4.5 19:21:17 10° NNW 19:27:05 75° W 19:32:47 10° S
Okean 2 3.3 19:24:05 10° N 19:28:17 79° E 19:32:27 10° S
Cosmos 2219 3.7 19:27:17 10° SW 19:32:59 64° WNW 19:38:43 10° NNE
Atlas Centaur 2 4.3 19:31:01 10° S 19:34:33 14° SSE 19:35:47 14° SSE
Cosmos 2227 Rocket 2.5 19:29:37 10° S 19:34:55 43° ESE 19:38:28 20° NE
Helios 1B rocket 2.6 19:30:53 10° NNE 19:34:55 48° E 19:38:56 10° S
Helios 1A 2.9 19:33:28 34° SE 19:35:04 59° ENE 19:39:10 10° N
Cosmos 1486 Rocket 4.4 19:30:30 10° SSE 19:35:22 38° ESE 19:36:14 35° E
Abrixas rocket 2.5 19:33:22 10° WSW 19:36:42 60° NNW 19:37:11 52° NNE
Cosmos 1441 Rocket 4.5 19:36:00 10° N 19:38:20 28° NNE 19:38:20 28° NNE
SAR-Lupe-1 3.9 19:44:47 79° ESE 19:44:55 82° ENE 19:48:31 10° NNW
SAR-Lupe-4 3.5 19:44:54 49° S 19:45:46 82° WSW 19:49:22 10° NNW
Cosmos 841 Rocket 3.9 19:41:41 10° N 19:46:24 39° ENE 19:46:24 39° ENE
Cosmos 1455 Rocket 2.9 19:42:38 10° S 19:46:58 62° E 19:51:16 10° NNE
SL-16 R/B 3.1 19:42:30 10° N 19:47:22 30° NE 19:47:22 30° NE
Cosmos 962 Rocket 4.5 19:45:51 10° SSE 19:51:51 55° E 19:57:49 10° NNE
Cosmos 1437 4.2 19:50:51 10° N 19:52:45 32° NNW 19:52:45 32° NNW
Cosmos 1763 Rocket 3.4 19:52:09 10° NNW 19:57:15 60° ENE 19:57:28 59° E
Resurs 01 Rocket 3.0 19:55:46 10° SSW 19:59:52 38° W 20:04:00 10° NNW
Cosmos 2333 Rocket 2.6 20:04:23 10° NNW 20:10:04 64° WSW 20:12:59 29° S
Cosmos 1980 3.7 20:05:28 10° NNW 20:11:07 77° WSW 20:12:50 46° S
GEOS 3 Rocket 3.8 20:08:20 28° NNE 20:11:12 73° NW 20:16:27 10° SW
GPS 2-04 Rocket1 4.4 20:11:27 10° WSW 20:14:12 27° SSW 20:14:12 27° SSW
Cosmos 1295 Rocket 4.4 20:33:35 70° S 20:34:25 88° WNW 20:40:46 10° N
Cosmos 2082 3.9 20:31:28 10° SSW 20:37:10 69° WNW 20:37:59 60° NNW
ERS-1 Rocket 4.3 20:45:10 33° NNW 20:45:10 33° NNW 20:47:52 10° NNW
NOSS 3-1 (A) 4.0 20:35:11 10° NW 20:42:50 84° WSW 20:44:06 67° SSE
Envisat 3.8 20:47:02 49° WNW 20:47:02 49° WNW 20:51:23 10° NNW
ATLAS 2AS CENTAUR R/B 3.6 20:41:00 10° NNW 20:48:06 41° NNE 20:48:06 41° NNE
Cosmos 2237 Rocket 3.4 20:50:36 10° NW 20:55:45 36° WSW 20:56:29 35° WSW
Cosmos 2297 Rocket 3.3 20:52:47 10° SW 20:56:25 37° WSW 20:56:25 37° WSW
Cosmos 2227 Rocket 3.9 21:14:10 10° WSW 21:19:06 30° NW 21:20:36 26° NNW
SL-16 R/B 4.0 21:26:24 10° NW 21:29:17 28° NW 21:29:17 28° NW
